Regional Weather Roundup
Issued by NWS

Home | Current Version | Previous Version | Graphics & Text | Print | Product List | Glossary On
Versions: 1 2 3 4 5 6 7 8 9 10 11 12 13 14 15 16 17 18 19 20 21 22 23 24 25 26 27 28 29 30 31 32 33 34 35 36 37 38 39 40 41 42 43 44 45 46 47 48 49 50
000
ASUS43 KMKX 280000
RWRWI

WISCONSIN REGIONAL WEATHER ROUNDUP
NATIONAL WEATHER SERVICE MILWAUKEE/SULLIVAN WI
700 PM CDT FRI MAY 27 2016

NOTE: "FAIR" INDICATES FEW OR NO CLOUDS BELOW 12,000 FEET WITH NO
SIGNIFICANT WEATHER AND/OR OBSTRUCTIONS TO VISIBILITY.

WIZ001-002-006>008-014>016-023>028-280100-
NORTHWEST WISCONSIN

CITY           SKY/WX    TMP DP  RH WIND       PRES   REMARKS
SUPERIOR ARPT  LGT RAIN  48  48 100 E10       29.84F
ASHLAND        LGT RAIN  49  47  93 N9        29.85F FOG
6HR MIN TEMP:  48; 6HR MAX TEMP:  56; 6HR PCP:  0.08;

HAYWARD        LGT RAIN  57  54  89 N7        29.78F FOG
6HR MIN TEMP:  57; 6HR MAX TEMP:  68; 6HR PCP:  0.37;

SIREN          CLOUDY    62  60  91 NE6       29.78F
CUMBERLAND     CLOUDY    61  59  94 NE7       29.77F
RICE LAKE      LGT RAIN  63  60  93 N8        29.77F
CHETEK         LGT RAIN  63  63 100 N6        29.75F
LADYSMITH      CLOUDY    66  64  92 E6        29.77F
EAU CLAIRE     CLOUDY    68  66  93 S13       29.72S
MENOMONIE      CLOUDY    65  65  99 NW7       29.74S
NEW RICHMOND   CLOUDY    68  63  83 CALM      29.75F
OSCEOLA        CLOUDY    65  65 100 N3        29.77F
$$

WIZ003>005-009-010-017-018-280100-
NORTH CENTRAL WISCONSIN

CITY           SKY/WX    TMP DP  RH WIND       PRES   REMARKS
MANITOWISH WTR NOT AVBL
ARBOR VITAE    CLOUDY    72  62  69 SE10      29.82S
WOODRUFF       CLOUDY    72  62  69 SE10      29.82S
RHINELANDER    CLOUDY    68  60  75 SE10      29.84R
6HR MIN TEMP:  68; 6HR MAX TEMP:  74; 6HR PCP: TRACE;

EAGLE RIVER      N/A     67  58  72 E10G16    29.83F
LAND O LAKES   CLOUDY    69  59  71 E10G16    29.85F
PHILLIPS       CLOUDY    67  63  87 E6        29.79F
TOMAHAWK       CLOUDY    68  60  74 E6        29.82S
MEDFORD        CLOUDY    69  64  82 E6        29.78F
MERRILL        CLOUDY    70  64  83 SE10      29.82R
$$

WIZ029-030-035-036-043>047-280100-
CENTRAL WISCONSIN

CITY           SKY/WX    TMP DP  RH WIND       PRES   REMARKS
WAUSAU         LGT RAIN  68  65  90 E10       29.78F FOG
6HR MIN TEMP:  68; 6HR MAX TEMP:  76; 6HR PCP:  0.12;

MOSINEE        RAIN      66  66 100 E9        29.80F FOG
MARSHFIELD     CLOUDY    69  65  86 E9        29.76F
6HR MIN TEMP:  69; 6HR MAX TEMP:  79; 6HR PCP:  0.01;

STEVENS POINT  HVY RAIN  66  65  99 NE6       29.80S
WAUPACA        LGT RAIN  71  71  99 E10       29.79S
WAUTOMA        CLOUDY    67  65  93 E5        29.78F
6HR MIN TEMP:  67; 6HR MAX TEMP:  76; 6HR PCP:  0.79;

WISC RAPIDS    LGT RAIN  69  66  90 SE8       29.78F
6HR MIN TEMP:  68; 6HR MAX TEMP:  79; 6HR PCP:  0.47;

CAMP DOUGLAS   PTSUNNY   70  70 100 E7        29.75S
$$

WIZ011>013-019>022-031-037>040-048>050-280100-
NORTHEAST WISCONSIN

CITY           SKY/WX    TMP DP  RH WIND       PRES   REMARKS
ANTIGO         LGT RAIN  64  64  97 SE13      29.83F
SHAWANO        RAIN      69  66  89 E8        29.82F
OCONTO         CLOUDY   N/A N/A N/A E6        29.84S
STURGEON BAY   NOT AVBL
GREEN BAY      CLOUDY    68  66  93 E9        29.82S FOG
6HR MIN TEMP:  67; 6HR MAX TEMP:  71;

MANITOWOC      RAIN      57  55  94 SE7       29.87R FOG
APPLETON       LGT RAIN  68  66  94 SE14      29.79S FOG
CLINTONVILLE   RAIN      66  64  94 E3        29.81S
OSHKOSH        HVY RAIN  68  65  90 S9        29.80S VSB 1
6HR MIN TEMP:  68; 6HR MAX TEMP:  74; 6HR PCP:  0.47;

$$

WIZ032>034-041-042-053>061-280100-
SOUTHWEST WISCONSIN

CITY           SKY/WX    TMP DP  RH WIND       PRES   REMARKS
LA CROSSE      LGT RAIN  71  67  87 S8        29.70F
6HR MIN TEMP:  71; 6HR MAX TEMP:  77; 6HR PCP:  0.12;

SPARTA         DRIZZLE   70  68  93 CALM      29.74S
VIROQUA        CLOUDY    71  66  85 W7        29.75S
BOSCOBEL       CLOUDY    71  66  84 SW3       29.72F
6HR MIN TEMP:  68; 6HR MAX TEMP:  82; 6HR PCP:  0.14;

PRAIRIE DU CHI MOSUNNY   68  66  94 S3        29.72F
PLATTEVILLE    MOSUNNY   75  69  81 S9        29.75F
$$

WIZ056-057-062-063-064-067-068-280100-
SOUTH CENTRAL WISCONSIN

CITY           SKY/WX    TMP DP  RH WIND       PRES   REMARKS
REEDSBURG      CLOUDY    72  68  87 S5        29.75S
BARABOO/DELLS  CLOUDY    72  65  78 S9        29.76S
LONE ROCK      NOT AVBL
MINERAL POINT  CLOUDY    73  68  83 S12       29.76S
MADISON        CLOUDY    74  65  73 S13       29.77R
6HR MIN TEMP:  72; 6HR MAX TEMP:  79; 6HR PCP: TRACE;

MIDDLETON      CLOUDY    74  66  76 S12       29.77S
WATERTOWN      CLOUDY    69  69 100 S8        29.79S
MONROE         CLOUDY    72  66  83 S9        29.78S
JANESVILLE     MOSUNNY   75  66  73 S12       29.78S
$$

WIZ051-052-058>065-066-070>072-280100-
SOUTHEAST WISCONSIN

CITY           SKY/WX    TMP DP  RH WIND       PRES   REMARKS
MILWAUKEE      CLOUDY    69  66  90 S10       29.82F
6HR MIN TEMP:  67; 6HR MAX TEMP:  79; 6HR PCP:  0.14;

WAUKESHA       PTSUNNY   70  64  83 SE10      29.83S
MILWAUKEE/TIMM PTSUNNY   70  64  83 S8        29.83F
RACINE         CLOUDY    68  64  87 S12       29.85S
6HR MIN TEMP:  67; 6HR MAX TEMP:  76; 6HR PCP: TRACE;

BURLINGTON     CLOUDY    72  67  84 SE6       29.81F
KENOSHA        CLOUDY    70  67  90 SE8       29.83S
6HR MIN TEMP:  69; 6HR MAX TEMP:  80; 6HR PCP:  0.03;

FOND DU LAC    HVY RAIN  68  66  93 S10       29.81R FOG
6HR MIN TEMP:  68; 6HR MAX TEMP:  75; 6HR PCP:  0.71;

SHEBOYGAN      LGT RAIN  65  62  90 S9        29.84S FOG
6HR MIN TEMP:  64; 6HR MAX TEMP:  71; 6HR PCP:  0.32;

WEST BEND      CLOUDY    68  64  88 SE7       29.82R
JUNEAU         CLOUDY    68  66  92 S7        29.81F
$$

LSZ147-162-280100-
LAKE SUPERIOR

STATION/POSITION TIME  TEMP    WIND        PRES    WAVE
                       AIR SEA DIR/SP/G            HT/PER
                 (UTC) (F)     (DEG/KT/KT) (MB)    (FT/S)
W MID LAKE BUOY  2250   41 38   20/ 10/ 14 1012.0R   1
DEVILS ISLAND    2300   44      20/ 11/ 12 1011.8F
SAXON HARBOR     2300   45      70/  1/  5 1010.8
$$

LMZ867-665-643>646-280100-
LAKE MICHIGAN

STATION/POSITION TIME  TEMP    WIND        PRES    WAVE
                       AIR SEA DIR/SP/G            HT/PER
                 (UTC) (F)     (DEG/KT/KT) (MB)    (FT/S)
CHAMBERS ISLAND  2300   64     110/  3/  7 1011.5
N MID LAKE BUOY  2250   50 47   80/  6/  8 1012.1F   0
NORTHPORT PIER   2300   54     160/  5/  9 1012.2S
SISTER BAY       2320   62     120/  9/ 11   N/A
ALGOMA LAKESHORE 2317           80/  7/  9   N/A
KEWAUNEE LAKESHO 2300           30/  3/  5 1010.6F
SHEBOYGAN LAKESH 2300   58     180/  9/ 10 1010.7R
PORT WASHINGTON  2300   60     210/  3/  6 1010.8F
S MID LAKE BUOY  2250   57 51  140/ 10/ 10 1010.8R   1
KENOSHA   LAKESH 2300   62     170/ 12/ 14 1010.2F
$$

TC  - TEMPERATURE IN CELSIUS
VSB - VISIBILITY IN STATUTE MILES
WCI - WIND CHILL INDEX
HX  - HEAT INDEX




USA.gov is the U.S. government's official web portal to all federal, state and local government web resources and services.